When you browse on this site, cookies collect data to enhance your experience and personalize the content and advertising you see.
Visit our Privacy Policy to learn more. By continuing to use the site, you agree to this use of cookies and data.
  • In Sweden
  • List of Countries
  • For 7 days
  • Water Temperature
  • Weather Map
  • Weather Widgets
  • user-avatar
    Login

    Hourly Weather Sárkerestúr

    Today, 22 October, Tuesday

    Time Temperature Precipitation Wind Pressure Humidity
    00:00 +18°C° 0 mm 2 mps 756 mmHg 72%
    01:00 +18°C° 0 mm 2 mps 756 mmHg 73%
    02:00 +18°C° 0 mm 1 mps 756 mmHg 74%
    03:00 +18°C° 0 mm 1 mps 757 mmHg 75%
    04:00 +18°C° 0 mm 1 mps 757 mmHg 75%
    05:00 +18°C° 0 mm 1 mps 757 mmHg 75%
    06:00 +18°C° 0 mm 1 mps 757 mmHg 75%
    07:00 +18°C° 0 mm 1 mps 757 mmHg 75%
    08:00 +20°C° 0 mm 1 mps 758 mmHg 68%
    09:00 +22°C° 0 mm 1 mps 758 mmHg 60%
    10:00 +24°C° 0 mm 1 mps 758 mmHg 53%
    11:00 +25°C° 0 mm 1 mps 758 mmHg 49%
    12:00 +26°C° 0 mm 1 mps 758 mmHg 45%
    13:00 +27°C° 0 mm 2 mps 758 mmHg 42%
    14:00 +27°C° 0 mm 1 mps 757 mmHg 43%
    15:00 +26°C° 0 mm 1 mps 757 mmHg 44%
    16:00 +26°C° 0 mm 1 mps 757 mmHg 46%
    17:00 +24°C° 0 mm 1 mps 757 mmHg 49%
    18:00 +23°C° 0 mm 1 mps 757 mmHg 52%
    19:00 +21°C° 0 mm 1 mps 757 mmHg 55%
    20:00 +21°C° 0 mm 1 mps 757 mmHg 56%
    21:00 +20°C° 0 mm 1 mps 757 mmHg 58%
    22:00 +20°C° 0 mm 1 mps 757 mmHg 59%
    23:00 +19°C° 0 mm 1 mps 757 mmHg 60%

    Tomorrow, 23 October, Wednesday

    Time Temperature Precipitation Wind Pressure Humidity
    00:00 +19°C° 0 mm 1 mps 757 mmHg 62%
    01:00 +18°C° 0 mm 1 mps 757 mmHg 63%
    02:00 +18°C° 0 mm 1 mps 757 mmHg 65%
    03:00 +18°C° 0 mm 1 mps 757 mmHg 66%
    04:00 +16°C° 0 mm 1 mps 756 mmHg 68%
    05:00 +16°C° 0 mm 1 mps 756 mmHg 68%
    06:00 +16°C° 0 mm 1 mps 756 mmHg 69%
    07:00 +16°C° 0 mm 2 mps 756 mmHg 70%
    08:00 +18°C° 0 mm 2 mps 756 mmHg 63%
    09:00 +20°C° 0 mm 2 mps 756 mmHg 55%
    10:00 +22°C° 0 mm 3 mps 756 mmHg 47%
    11:00 +24°C° 0 mm 3 mps 756 mmHg 43%
    12:00 +26°C° 0 mm 3 mps 756 mmHg 38%
    13:00 +27°C° 0 mm 3 mps 755 mmHg 34%
    14:00 +26°C° 0 mm 3 mps 755 mmHg 36%
    15:00 +25°C° 0 mm 2 mps 754 mmHg 38%
    16:00 +24°C° 0 mm 2 mps 754 mmHg 40%
    17:00 +23°C° 0 mm 2 mps 754 mmHg 44%
    18:00 +21°C° 0 mm 2 mps 754 mmHg 48%
    19:00 +19°C° 0 mm 2 mps 754 mmHg 51%
    20:00 +19°C° 0 mm 2 mps 754 mmHg 53%
    21:00 +18°C° 0 mm 2 mps 754 mmHg 55%
    22:00 +17°C° 0 mm 2 mps 754 mmHg 56%
    23:00 +17°C° 0 mm 2 mps 754 mmHg 58%

    Day after tomorrow, 24 October, Thursday

    Time Temperature Precipitation Wind Pressure Humidity
    00:00 +17°C° 0 mm 2 mps 754 mmHg 59%
    01:00 +16°C° 0 mm 2 mps 754 mmHg 60%
    02:00 +16°C° 0 mm 2 mps 753 mmHg 61%
    03:00 +15°C° 0 mm 2 mps 753 mmHg 62%
    04:00 +15°C° 0 mm 2 mps 753 mmHg 63%
    05:00 +15°C° 0 mm 2 mps 753 mmHg 64%
    06:00 +15°C° 0 mm 2 mps 753 mmHg 64%
    07:00 +14°C° 0 mm 2 mps 753 mmHg 64%
    08:00 +17°C° 0 mm 2 mps 753 mmHg 57%
    09:00 +19°C° 0 mm 2 mps 753 mmHg 50%
    10:00 +21°C° 0 mm 2 mps 753 mmHg 43%
    11:00 +24°C° 0 mm 3 mps 752 mmHg 40%
    12:00 +25°C° 0 mm 3 mps 752 mmHg 36%
    13:00 +27°C° 0 mm 3 mps 752 mmHg 32%
    14:00 +26°C° 0 mm 3 mps 751 mmHg 34%
    15:00 +25°C° 0 mm 3 mps 751 mmHg 37%
    16:00 +25°C° 0 mm 3 mps 751 mmHg 39%
    17:00 +22°C° 0 mm 3 mps 751 mmHg 43%
    18:00 +20°C° 0 mm 3 mps 751 mmHg 46%
    19:00 +19°C° 0 mm 2 mps 751 mmHg 50%
    20:00 +18°C° 0 mm 2 mps 752 mmHg 52%
    21:00 +18°C° 0 mm 2 mps 752 mmHg 53%
    22:00 +17°C° 0 mm 2 mps 752 mmHg 55%
    23:00 +18°C° 0 mm 1 mps 752 mmHg 56%

    25 October, Friday

    Time Temperature Precipitation Wind Pressure Humidity
    00:00 +16°C° 0 mm 1 mps 752 mmHg 57%
    01:00 +16°C° 0 mm 1 mps 753 mmHg 58%
    02:00 +15°C° 0 mm 1 mps 753 mmHg 59%
    03:00 +15°C° 0 mm 1 mps 753 mmHg 61%
    04:00 +14°C° 0 mm 1 mps 753 mmHg 63%
    05:00 +14°C° 0 mm 1 mps 753 mmHg 64%
    06:00 +14°C° 0 mm 1 mps 754 mmHg 65%
    07:00 +14°C° 0 mm 1 mps 754 mmHg 66%
    08:00 +16°C° 0 mm 2 mps 755 mmHg 62%
    09:00 +18°C° 0 mm 3 mps 755 mmHg 58%
    10:00 +20°C° 0 mm 5 mps 756 mmHg 54%
    11:00 +21°C° 0 mm 4 mps 756 mmHg 53%
    12:00 +22°C° 0 mm 4 mps 756 mmHg 52%
    13:00 +22°C° 0 mm 4 mps 756 mmHg 50%
    14:00 +22°C° 0 mm 3 mps 756 mmHg 53%
    15:00 +21°C° 0 mm 3 mps 755 mmHg 55%
    16:00 +21°C° 0 mm 2 mps 755 mmHg 58%
    17:00 +19°C° 0 mm 2 mps 756 mmHg 63%
    18:00 +18°C° 0 mm 2 mps 756 mmHg 68%
    19:00 +17°C° 0 mm 2 mps 756 mmHg 74%
    20:00 +16°C° 0 mm 2 mps 756 mmHg 76%
    21:00 +15°C° 0 mm 1 mps 756 mmHg 78%
    22:00 +15°C° 0 mm 1 mps 757 mmHg 81%
    23:00 +15°C° 0 mm 1 mps 756 mmHg 82%

    26 October, Saturday

    Time Temperature Precipitation Wind Pressure Humidity
    00:00 +14°C° 0 mm 1 mps 756 mmHg 84%
    01:00 +14°C° 0 mm 1 mps 756 mmHg 85%
    02:00 +14°C° 0 mm 1 mps 756 mmHg 86%
    03:00 +13°C° 0 mm 1 mps 756 mmHg 86%
    04:00 +12°C° 0 mm 0 mps 756 mmHg 86%
    05:00 +12°C° 0 mm 0 mps 756 mmHg 86%
    06:00 +13°C° 0 mm 1 mps 756 mmHg 86%
    07:00 +13°C° 0 mm 1 mps 756 mmHg 86%
    08:00 +15°C° 0 mm 1 mps 757 mmHg 77%
    09:00 +18°C° 0 mm 1 mps 757 mmHg 68%
    10:00 +19°C° 0 mm 2 mps 757 mmHg 59%
    11:00 +20°C° 0 mm 2 mps 757 mmHg 55%
    12:00 +23°C° 0 mm 2 mps 756 mmHg 50%
    13:00 +24°C° 0 mm 2 mps 756 mmHg 45%
    14:00 +23°C° 0 mm 2 mps 756 mmHg 47%
    15:00 +21°C° 0 mm 2 mps 755 mmHg 49%
    16:00 +22°C° 0 mm 1 mps 755 mmHg 52%
    17:00 +21°C° 0 mm 1 mps 755 mmHg 56%
    18:00 +19°C° 0 mm 1 mps 755 mmHg 60%
    19:00 +18°C° 0 mm 1 mps 755 mmHg 64%
    20:00 +18°C° 0 mm 1 mps 755 mmHg 65%
    21:00 +16°C° 0 mm 1 mps 756 mmHg 67%
    22:00 +16°C° 0 mm 1 mps 756 mmHg 68%
    23:00 +16°C° 0 mm 1 mps 756 mmHg 69%

    27 October, Sunday

    Time Temperature Precipitation Wind Pressure Humidity
    00:00 +15°C° 0 mm 1 mps 755 mmHg 71%
    01:00 +15°C° 0 mm 1 mps 755 mmHg 73%
    02:00 +15°C° 0 mm 1 mps 755 mmHg 74%
    03:00 +14°C° 0 mm 1 mps 755 mmHg 76%
    04:00 +14°C° 0 mm 1 mps 755 mmHg 78%
    05:00 +14°C° 0 mm 1 mps 755 mmHg 78%
    06:00 +14°C° 0 mm 1 mps 755 mmHg 78%
    07:00 +14°C° 0 mm 1 mps 755 mmHg 79%
    08:00 +16°C° 0 mm 1 mps 755 mmHg 70%
    09:00 +19°C° 0 mm 1 mps 755 mmHg 61%
    10:00 +21°C° 0 mm 1 mps 755 mmHg 52%
    11:00 +21°C° 0 mm 2 mps 755 mmHg 47%
    12:00 +23°C° 0 mm 2 mps 755 mmHg 43%
    13:00 +24°C° 0 mm 3 mps 754 mmHg 38%
    14:00 +22°C° 0 mm 3 mps 754 mmHg 41%
    15:00 +21°C° 0 mm 2 mps 754 mmHg 44%
    16:00 +21°C° 0 mm 2 mps 754 mmHg 47%
    17:00 +19°C° 0 mm 2 mps 754 mmHg 49%
    18:00 +18°C° 0 mm 2 mps 754 mmHg 52%
    19:00 +17°C° 0 mm 2 mps 755 mmHg 54%
    20:00 +17°C° 0 mm 2 mps 755 mmHg 57%
    21:00 +16°C° 0 mm 2 mps 755 mmHg 60%
    22:00 +16°C° 0 mm 2 mps 755 mmHg 63%
    23:00 +15°C° 0 mm 2 mps 755 mmHg 67%

    28 October, Monday

    Time Temperature Precipitation Wind Pressure Humidity
    00:00 +14°C° 0 mm 2 mps 755 mmHg 71%
    01:00 +13°C° 0 mm 2 mps 755 mmHg 75%
    02:00 +13°C° 0 mm 2 mps 755 mmHg 70%
    03:00 +13°C° 0 mm 2 mps 755 mmHg 66%
    04:00 +13°C° 0 mm 2 mps 755 mmHg 61%
    05:00 +13°C° 0 mm 2 mps 755 mmHg 56%
    06:00 +13°C° 0 mm 2 mps 755 mmHg 51%
    07:00 +13°C° 0 mm 2 mps 755 mmHg 47%
    08:00 +12°C° 0 mm 3 mps 756 mmHg 46%
    09:00 +12°C° 0 mm 3 mps 756 mmHg 45%
    10:00 +12°C° 0 mm 3 mps 756 mmHg 44%
    11:00 +12°C° 0 mm 3 mps 756 mmHg 46%
    12:00 +12°C° 0 mm 3 mps 756 mmHg 49%
    13:00 +12°C° 0 mm 3 mps 755 mmHg 51%
    14:00 +12°C° 0 mm 3 mps 755 mmHg 56%
    15:00 +12°C° 0 mm 2 mps 755 mmHg 61%
    16:00 +12°C° 0 mm 2 mps 754 mmHg 66%
    17:00 +12°C° 0 mm 2 mps 755 mmHg 69%
    18:00 +10°C° 0 mm 3 mps 755 mmHg 72%
    19:00 +10°C° 0 mm 3 mps 755 mmHg 75%
    20:00 +10°C° 0 mm 3 mps 755 mmHg 76%
    21:00 +10°C° 0 mm 2 mps 755 mmHg 77%
    22:00 +10°C° 0 mm 2 mps 755 mmHg 77%
    23:00 +10°C° 0 mm 2 mps 755 mmHg 77%
    Show more